Location: Central Falls
(41.8900°N, 71.3929°W)
Time: 15:25:12
(UTC+00:00)

Vanguard 1 - Pass Details

Date: 05 December 2023
Orbit: 653 x 3826 km, 34.3° (Epoch: 24 February)

Event Time Altitude Azimuth Distance (km) Brightness Sun altitude
Rises 21:12:06 0° 217° (SW) 5,050 15.2 -0.4°
Reaches altitude 10° 21:15:07 10° 210° (SSW) 4,414 14.5 -0.9°
Maximum altitude 21:27:13 43° 144° (SE) 3,642 12.9 -2.9°
Drops below altitude 10° 21:46:16 10° 83° (E) 6,800 13.7 -6.1°
Enters shadow 21:49:24 - 80° (E) 7,405 13.9 -6.6°
Sets 21:52:20 0° 78° (ENE) 7,957 - -7.1°
